| time (UTC) | temp F | wind direction | speed knots | gust knots | rain 1hr in | rain 24hr in | rain mn in | humidity % | barometer mb |
| 20260906040115 | 75 | 0 | 0.0 | 0.0 | 0.00 | 0.33 | 0.33 | 91 | 1014.6 |
| 20260906034553 | 75 | 0 | 0.0 | 0.0 | 0.00 | 0.33 | 0.33 | 91 | 1015.1 |
| 20260906033102 | 75 | 0 | 0.0 | 0.0 | 0.00 | 0.33 | 0.33 | 91 | 1015.0 |
| 20260906031607 | 75 | 0 | 0.0 | 3.5 | 0.00 | 0.33 | 0.33 | 91 | 1014.2 |
| 20260906030107 | 75 | 0 | 0.0 | 0.0 | 0.00 | 0.33 | 0.33 | 92 | 1014.4 |
| 20260906024558 | 75 | 0 | 0.0 | 0.0 | 0.00 | 0.33 | 0.33 | 93 | 1014.5 |
| 20260906023122 | 76 | 0 | 0.0 | 0.0 | 0.00 | 0.33 | 0.33 | 92 | 1014.0 |
| 20260906021558 | 76 | 0 | 0.0 | 0.0 | 0.00 | 0.33 | 0.33 | 91 | 1013.9 |
| 20260906020056 | 77 | 0 | 0.0 | 0.0 | 0.00 | 0.33 | 0.33 | 89 | 1013.5 |
| 20260906014623 | 77 | 0 | 0.0 | 0.0 | 0.00 | 0.33 | 0.33 | 88 | 1013.3 |
| 20260906013101 | 78 | 0 | 0.0 | 0.0 | 0.00 | 0.33 | 0.33 | 88 | 1013.3 |
| 20260906011601 | 79 | 0 | 0.0 | 0.0 | 0.00 | 0.33 | 0.33 | 85 | 1013.0 |
| 20260906010057 | 79 | 0 | 0.0 | 0.0 | 0.00 | 0.33 | 0.33 | 85 | 1013.2 |
| 20260906004609 | 80 | 0 | 0.0 | 0.0 | 0.00 | 0.33 | 0.33 | 83 | 1013.6 |
| 20260906003059 | 80 | 0 | 0.0 | 0.0 | 0.00 | 0.33 | 0.33 | 83 | 1013.6 |
| 20260906001553 | 81 | 0 | 0.0 | 1.7 | 0.00 | 0.33 | 0.33 | 82 | 1013.7 |
| 20260906000104 | 82 | 0 | 0.0 | 1.7 | 0.00 | 0.33 | 0.33 | 81 | 1013.5 |
| 20260905234602 | 84 | 0 | 0.0 | 0.0 | 0.00 | 0.33 | 0.33 | 76 | 1013.1 |
| 20260905233059 | 86 | 0 | 0.0 | 0.0 | 0.00 | 0.33 | 0.33 | 74 | 1013.1 |
| 20260905231556 | 87 | 0 | 0.0 | 0.9 | 0.00 | 0.33 | 0.33 | 74 | 1013.0 |
| 20260905230101 | 88 | 0 | 0.0 | 0.0 | 0.00 | 0.33 | 0.33 | 71 | 1013.0 |
| 20260905224607 | 87 | 0 | 0.0 | 1.7 | 0.00 | 0.33 | 0.33 | 72 | 1013.0 |
| 20260905223057 | 87 | 0 | 0.9 | 4.3 | 0.00 | 0.33 | 0.33 | 74 | 1013.3 |
| 20260905221553 | 87 | 197 | 0.9 | 7.0 | 0.00 | 0.33 | 0.33 | 74 | 1013.4 |
| 20260905220111 | 88 | 134 | 0.9 | 3.5 | 0.00 | 0.33 | 0.33 | 73 | 1013.4 |
| 20260905214557 | 87 | 0 | 0.0 | 0.0 | 0.00 | 0.33 | 0.33 | 75 | 1013.3 |
| 20260905213107 | 85 | 153 | 0.9 | 5.2 | 0.00 | 0.33 | 0.33 | 80 | 1013.5 |
| 20260905211557 | 83 | 140 | 0.9 | 6.1 | 0.00 | 0.33 | 0.33 | 81 | 1013.7 |
| 20260905210058 | 83 | 134 | 0.0 | 3.5 | 0.00 | 0.33 | 0.33 | 83 | 1013.7 |
| 20260905204555 | 82 | 0 | 0.0 | 0.9 | 0.00 | 0.33 | 0.33 | 84 | 1013.8 |
| 20260905203102 | 81 | 0 | 0.9 | 2.6 | 0.00 | 0.33 | 0.33 | 87 | 1014.0 |
| 20260905201557 | 81 | 132 | 2.6 | 4.3 | 0.01 | 0.33 | 0.33 | 87 | 1014.1 |
| 20260905200100 | 80 | 0 | 0.0 | 0.0 | 0.33 | 0.33 | 0.33 | 90 | 1014.0 |
| 20260905194554 | 77 | 0 | 0.0 | 2.6 | 0.33 | 0.33 | 0.33 | 90 | 1014.3 |
| 20260905193101 | 78 | 51 | 0.0 | 2.6 | 0.33 | 0.33 | 0.33 | 89 | 1014.5 |
| 20260905191600 | 81 | 26 | 0.9 | 15.6 | 0.31 | 0.31 | 0.31 | 75 | 1014.9 |
| 20260905190103 | 93 | 0 | 0.0 | 0.9 | 0.00 | 0.00 | 0.00 | 62 | 1014.9 |
| 20260905184603 | 94 | 0 | 0.0 | 1.7 | 0.00 | 0.00 | 0.00 | 62 | 1014.6 |
| 20260905183119 | 94 | 355 | 0.9 | 6.1 | 0.00 | 0.00 | 0.00 | 62 | 1014.9 |
| 20260905181604 | 95 | 64 | 0.0 | 7.0 | 0.00 | 0.00 | 0.00 | 62 | 1014.8 |
| 20260905180058 | 94 | 78 | 0.0 | 5.2 | 0.00 | 0.00 | 0.00 | 65 | 1015.1 |
| 20260905174551 | 93 | 108 | 0.9 | 4.3 | 0.00 | 0.00 | 0.00 | 67 | 1015.2 |
| 20260905173056 | 92 | 82 | 0.0 | 3.5 | 0.00 | 0.00 | 0.00 | 67 | 1015.3 |
| 20260905171604 | 92 | 329 | 0.9 | 4.3 | 0.00 | 0.00 | 0.00 | 68 | 1015.6 |
| 20260905170058 | 92 | 0 | 0.0 | 2.6 | 0.00 | 0.00 | 0.00 | 66 | 1015.8 |
| 20260905164606 | 91 | 98 | 0.0 | 0.0 | 0.00 | 0.00 | 0.00 | 68 | 1015.9 |
| 20260905163101 | 90 | 0 | 0.0 | 3.5 | 0.00 | 0.00 | 0.00 | 69 | 1016.3 |
| 20260905161558 | 88 | 0 | 0.0 | 2.6 | 0.00 | 0.00 | 0.00 | 73 | 1016.3 |
| 20260905160111 | 87 | 0 | 0.0 | 2.6 | 0.00 | 0.00 | 0.00 | 73 | 1016.3 |
| 20260905154602 | 86 | 0 | 0.0 | 2.6 | 0.00 | 0.00 | 0.00 | 77 | 1016.3 |
| 20260905153058 | 86 | 286 | 0.9 | 2.6 | 0.00 | 0.00 | 0.00 | 77 | 1016.4 |
| 20260905151600 | 85 | 0 | 0.0 | 0.0 | 0.00 | 0.00 | 0.00 | 78 | 1016.3 |
| 20260905150054 | 83 | 279 | 0.9 | 3.5 | 0.00 | 0.00 | 0.00 | 79 | 1016.3 |
| 20260905144558 | 82 | 0 | 0.0 | 0.0 | 0.00 | 0.00 | 0.00 | 85 | 1016.5 |
| 20260905143100 | 79 | 0 | 0.0 | 0.0 | 0.00 | 0.00 | 0.00 | 88 | 1016.6 |
| 20260905141559 | 77 | 0 | 0.0 | 0.0 | 0.00 | 0.00 | 0.00 | 90 | 1016.6 |
| 20260905140107 | 76 | 0 | 0.0 | 0.0 | 0.00 | 0.00 | 0.00 | 95 | 1016.6 |
| 20260905134552 | 75 | 0 | 0.0 | 0.0 | 0.00 | 0.00 | 0.00 | 96 | 1016.7 |
| 20260905133106 | 74 | 0 | 0.0 | 0.0 | 0.00 | 0.00 | 0.00 | 97 | 1016.6 |
| 20260905131607 | 74 | 0 | 0.0 | 0.0 | 0.00 | 0.00 | 0.00 | 97 | 1016.7 |
| 20260905130058 | 73 | 0 | 0.0 | 0.0 | 0.00 | 0.00 | 0.00 | 98 | 1017.0 |
| 20260905124559 | 73 | 0 | 0.0 | 0.0 | 0.00 | 0.00 | 0.00 | 98 | 1017.0 |
| 20260905123050 | 72 | 0 | 0.0 | 0.0 | 0.00 | 0.00 | 0.00 | 99 | 1016.8 |
| 20260905121557 | 72 | 0 | 0.0 | 0.0 | 0.00 | 0.00 | 0.00 | 99 | 1016.6 |
| 20260905120108 | 72 | 0 | 0.0 | 0.0 | 0.00 | 0.00 | 0.00 | 99 | 1016.5 |
| 20260905114601 | 72 | 0 | 0.0 | 0.0 | 0.00 | 0.00 | 0.00 | 99 | 1016.3 |
| 20260905113052 | 72 | 0 | 0.0 | 0.0 | 0.00 | 0.00 | 0.00 | 99 | 1016.1 |
| 20260905111610 | 71 | 0 | 0.0 | 0.0 | 0.00 | 0.00 | 0.00 | 99 | 1016.0 |
| 20260905110100 | 71 | 0 | 0.0 | 0.0 | 0.00 | 0.00 | 0.00 | 99 | 1015.8 |
| 20260905104558 | 71 | 0 | 0.0 | 0.0 | 0.00 | 0.00 | 0.00 | 99 | 1015.7 |
| 20260905103059 | 71 | 0 | 0.0 | 0.0 | 0.00 | 0.00 | 0.00 | 98 | 1015.6 |
| 20260905101605 | 72 | 0 | 0.0 | 0.0 | 0.00 | 0.00 | 0.00 | 98 | 1015.5 |
| 20260905100100 | 72 | 0 | 0.0 | 0.0 | 0.00 | 0.00 | 0.00 | 98 | 1015.4 |
| 20260905094552 | 72 | 0 | 0.0 | 0.0 | 0.00 | 0.00 | 0.00 | 98 | 1015.2 |
| 20260905093058 | 72 | 0 | 0.0 | 0.0 | 0.00 | 0.00 | 0.00 | 98 | 1015.0 |
| 20260905091555 | 73 | 0 | 0.0 | 0.0 | 0.00 | 0.00 | 0.00 | 98 | 1015.0 |
| 20260905084611 | 73 | 0 | 0.0 | 0.0 | 0.00 | 0.00 | 0.00 | 98 | 1015.2 |
| 20260905083052 | 73 | 0 | 0.0 | 0.0 | 0.00 | 0.00 | 0.00 | 98 | 1015.3 |
| 20260905081555 | 73 | 0 | 0.0 | 0.0 | 0.00 | 0.00 | 0.00 | 98 | 1015.4 |
| 20260905080059 | 74 | 0 | 0.0 | 0.0 | 0.00 | 0.00 | 0.00 | 97 | 1015.4 |
| 20260905074559 | 74 | 0 | 0.0 | 0.0 | 0.00 | 0.00 | 0.00 | 96 | 1015.5 |
| 20260905073102 | 74 | 0 | 0.0 | 0.0 | 0.00 | 0.00 | 0.00 | 95 | 1015.5 |
| 20260905071557 | 74 | 0 | 0.0 | 0.0 | 0.00 | 0.00 | 0.00 | 96 | 1015.5 |
| 20260905070105 | 74 | 0 | 0.0 | 0.0 | 0.00 | 0.00 | 0.00 | 95 | 1015.5 |
| 20260905064555 | 74 | 0 | 0.0 | 0.0 | 0.00 | 0.00 | 0.00 | 96 | 1015.6 |
| 20260905063055 | 74 | 0 | 0.0 | 0.0 | 0.00 | 0.00 | 0.00 | 96 | 1015.7 |
| 20260905061556 | 74 | 0 | 0.0 | 0.0 | 0.00 | 0.00 | 0.00 | 95 | 1016.0 |
| 20260905060054 | 75 | 0 | 0.0 | 0.0 | 0.00 | 0.00 | 0.00 | 95 | 1016.0 |
| 20260905054555 | 75 | 0 | 0.0 | 0.0 | 0.00 | 0.00 | 0.00 | 94 | 1015.9 |
| 20260905053140 | 75 | 0 | 0.0 | 0.0 | 0.00 | 0.00 | 0.00 | 92 | 1015.9 |
| 20260905051555 | 76 | 0 | 0.0 | 0.0 | 0.00 | 0.00 | 0.00 | 92 | 1016.0 |
| 20260905050051 | 76 | 0 | 0.0 | 0.0 | 0.00 | 0.00 | 0.00 | 92 | 1016.0 |
| 20260905044601 | 77 | 0 | 0.0 | 0.0 | 0.00 | 0.00 | 0.00 | 92 | 1015.9 |
| 20260905043058 | 77 | 0 | 0.0 | 0.0 | 0.00 | 0.00 | 0.00 | 91 | 1016.0 |
| 20260905041556 | 77 | 0 | 0.0 | 0.0 | 0.00 | 0.00 | 0.00 | 90 | 1016.2 |